GEFSNGP_prec_meanprecacc_162.txt.gz
Total_Precipitation_Accumulation
0.16 0.17 0.25 0.44 0.55 0.53 0.49 0.52 0.69 0.72 0.66 0.61 0.55 0.61 0.67 0.70 0.66 0.58 0.54 0.56 0.60 0.64 0.64 0.62 0.59 0.61 0.63 0.69 0.80 0.95 1.08 1.07 0.93 0.74 0.61 0.55 0.50 0.43 0.41 0.42 0.43 0.49 0.56 0.60
0.05 0.07 0.16 0.30 0.41 0.42 0.38 0.36 0.44 0.50 0.50 0.41 0.37 0.43 0.45 0.47 0.42 0.39 0.36 0.33 0.31 0.32 0.34 0.34 0.31 0.28 0.27 0.34 0.49 0.74 0.99 0.97 0.75 0.58 0.47 0.42 0.41 0.40 0.36 0.35 0.40 0.45 0.46 0.49
0.04 0.05 0.11 0.31 0.37 0.34 0.33 0.25 0.26 0.31 0.31 0.27 0.29 0.35 0.35 0.38 0.39 0.30 0.22 0.20 0.20 0.21 0.21 0.20 0.20 0.18 0.19 0.26 0.38 0.55 0.65 0.61 0.51 0.40 0.38 0.41 0.43 0.37 0.35 0.35 0.36 0.40 0.41 0.42
0.07 0.09 0.30 0.58 0.52 0.44 0.40 0.22 0.15 0.15 0.16 0.19 0.29 0.31 0.31 0.29 0.29 0.28 0.18 0.12 0.12 0.12 0.13 0.15 0.16 0.20 0.23 0.27 0.34 0.39 0.41 0.40 0.34 0.31 0.32 0.34 0.36 0.35 0.41 0.45 0.43 0.43 0.46 0.47
0.16 0.21 0.43 0.54 0.49 0.49 0.49 0.33 0.13 0.09 0.10 0.09 0.09 0.11 0.13 0.13 0.11 0.11 0.07 0.04 0.04 0.03 0.03 0.05 0.05 0.07 0.09 0.11 0.13 0.14 0.14 0.13 0.12 0.12 0.14 0.15 0.16 0.22 0.33 0.41 0.42 0.45 0.49 0.50
0.22 0.29 0.43 0.37 0.23 0.25 0.38 0.44 0.12 0.05 0.04 0.02 0.01 0.04 0.06 0.07 0.07 0.03 0.01 0.01 0.01 0.00 0.00 0.00 0.00 0.00 0.01 0.01 0.02 0.02 0.02 0.02 0.02 0.02 0.03 0.04 0.06 0.09 0.16 0.20 0.25 0.33 0.35 0.39
0.24 0.42 0.63 0.45 0.25 0.23 0.39 0.40 0.09 0.03 0.01 0.00 0.00 0.00 0.02 0.05 0.05 0.03 0.01 0.01 0.01 0.00 0.00 0.00 0.00 0.00 0.00 0.00 0.00 0.01 0.01 0.01 0.01 0.00 0.00 0.01 0.02 0.04 0.07 0.09 0.14 0.18 0.22 0.29
0.31 0.60 0.83 0.64 0.42 0.34 0.26 0.11 0.03 0.01 0.00 0.00 0.00 0.00 0.01 0.03 0.03 0.02 0.02 0.01 0.00 0.00 0.00 0.01 0.01 0.00 0.00 0.00 0.00 0.01 0.01 0.01 0.01 0.01 0.01 0.01 0.02 0.02 0.03 0.04 0.07 0.10 0.13 0.17
0.23 0.46 0.52 0.47 0.35 0.25 0.17 0.07 0.01 0.00 0.00 0.00 0.00 0.00 0.00 0.01 0.02 0.01 0.01 0.00 0.00 0.00 0.00 0.01 0.01 0.00 0.00 0.00 0.00 0.00 0.01 0.01 0.01 0.01 0.01 0.02 0.02 0.02 0.03 0.04 0.06 0.08 0.12 0.18
0.04 0.10 0.15 0.18 0.18 0.11 0.08 0.05 0.01 0.00 0.00 0.00 0.00 0.00 0.00 0.01 0.02 0.02 0.01 0.00 0.00 0.00 0.00 0.00 0.00 0.00 0.00 0.00 0.00 0.00 0.00 0.00 0.00 0.01 0.01 0.02 0.03 0.03 0.04 0.05 0.07 0.11 0.16 0.22
0.05 0.03 0.03 0.07 0.08 0.07 0.04 0.02 0.00 0.00 0.00 0.00 0.00 0.00 0.00 0.01 0.02 0.02 0.01 0.01 0.01 0.01 0.00 0.00 0.00 0.00 0.00 0.00 0.00 0.00 0.00 0.00 0.00 0.01 0.01 0.01 0.01 0.01 0.03 0.04 0.06 0.13 0.20 0.25
0.04 0.03 0.02 0.04 0.04 0.04 0.02 0.01 0.00 0.00 0.00 0.00 0.00 0.00 0.00 0.00 0.01 0.02 0.03 0.01 0.01 0.01 0.01 0.01 0.00 0.00 0.00 0.00 0.00 0.00 0.00 0.00 0.00 0.01 0.01 0.02 0.02 0.01 0.01 0.03 0.06 0.09 0.09 0.12
0.02 0.02 0.01 0.02 0.02 0.01 0.01 0.01 0.00 0.00 0.00 0.00 0.00 0.00 0.00 0.00 0.01 0.02 0.03 0.01 0.01 0.01 0.01 0.01 0.01 0.00 0.00 0.00 0.00 0.00 0.00 0.00 0.00 0.01 0.01 0.02 0.02 0.04 0.06 0.05 0.03 0.03 0.03 0.05
0.01 0.02 0.02 0.01 0.01 0.01 0.01 0.01 0.00 0.00 0.00 0.00 0.00 0.00 0.00 0.00 0.00 0.01 0.02 0.01 0.01 0.01 0.01 0.01 0.00 0.00 0.00 0.00 0.00 0.00 0.00 0.00 0.01 0.03 0.06 0.07 0.07 0.10 0.15 0.19 0.17 0.09 0.04 0.04
0.01 0.02 0.01 0.01 0.01 0.01 0.01 0.01 0.01 0.00 0.00 0.00 0.00 0.00 0.00 0.00 0.00 0.00 0.01 0.01 0.01 0.01 0.01 0.00 0.00 0.00 0.00 0.00 0.00 0.00 0.00 0.01 0.04 0.09 0.11 0.09 0.10 0.15 0.17 0.13 0.11 0.11 0.09 0.07
0.02 0.01 0.00 0.01 0.01 0.01 0.00 0.00 0.01 0.01 0.01 0.00 0.00 0.00 0.00 0.00 0.00 0.00 0.00 0.00 0.01 0.01 0.00 0.00 0.00 0.00 0.00 0.01 0.00 0.01 0.01 0.01 0.03 0.08 0.11 0.10 0.09 0.10 0.10 0.08 0.07 0.08 0.10 0.11
0.03 0.02 0.01 0.01 0.01 0.01 0.00 0.00 0.00 0.01 0.01 0.01 0.01 0.00 0.00 0.01 0.01 0.00 0.00 0.00 0.00 0.00 0.00 0.00 0.00 0.00 0.01 0.01 0.01 0.01 0.01 0.02 0.03 0.05 0.08 0.07 0.07 0.08 0.08 0.08 0.09 0.10 0.10 0.11
0.02 0.02 0.02 0.02 0.01 0.01 0.00 0.00 0.00 0.00 0.00 0.00 0.01 0.01 0.01 0.01 0.01 0.01 0.00 0.00 0.00 0.00 0.00 0.00 0.00 0.01 0.01 0.01 0.01 0.01 0.02 0.04 0.05 0.07 0.08 0.06 0.07 0.09 0.12 0.12 0.10 0.12 0.13 0.13
0.02 0.02 0.02 0.02 0.01 0.01 0.01 0.01 0.01 0.01 0.01 0.00 0.01 0.01 0.01 0.01 0.01 0.01 0.01 0.01 0.01 0.01 0.00 0.00 0.01 0.01 0.01 0.01 0.02 0.03 0.03 0.04 0.06 0.08 0.09 0.07 0.09 0.11 0.13 0.13 0.13 0.14 0.15 0.17
0.03 0.03 0.03 0.02 0.01 0.01 0.01 0.01 0.01 0.01 0.01 0.01 0.01 0.01 0.01 0.01 0.02 0.02 0.02 0.02 0.02 0.02 0.01 0.01 0.01 0.01 0.01 0.02 0.03 0.04 0.05 0.06 0.07 0.09 0.10 0.09 0.11 0.13 0.14 0.14 0.15 0.17 0.18 0.19
0.03 0.03 0.02 0.02 0.01 0.01 0.01 0.01 0.01 0.01 0.01 0.01 0.01 0.01 0.02 0.02 0.02 0.03 0.04 0.03 0.03 0.03 0.03 0.03 0.02 0.02 0.02 0.04 0.05 0.06 0.07 0.07 0.08 0.09 0.10 0.10 0.10 0.12 0.14 0.15 0.16 0.18 0.18 0.18
0.05 0.04 0.03 0.02 0.02 0.02 0.02 0.01 0.01 0.01 0.01 0.01 0.02 0.02 0.02 0.02 0.02 0.02 0.03 0.04 0.04 0.04 0.04 0.04 0.04 0.04 0.06 0.09 0.07 0.07 0.07 0.08 0.09 0.10 0.11 0.11 0.12 0.13 0.15 0.16 0.18 0.19 0.19 0.20
0.07 0.06 0.05 0.04 0.04 0.04 0.04 0.03 0.02 0.02 0.02 0.02 0.02 0.03 0.03 0.03 0.03 0.04 0.04 0.04 0.04 0.06 0.06 0.05 0.07 0.09 0.12 0.10 0.08 0.09 0.10 0.10 0.11 0.13 0.14 0.17 0.18 0.18 0.17 0.17 0.18 0.19 0.21 0.24
0.07 0.07 0.06 0.06 0.05 0.05 0.05 0.05 0.04 0.03 0.03 0.03 0.03 0.04 0.04 0.05 0.05 0.06 0.07 0.08 0.08 0.09 0.08 0.09 0.10 0.14 0.16 0.13 0.12 0.13 0.14 0.14 0.15 0.15 0.16 0.19 0.21 0.22 0.21 0.20 0.21 0.23 0.23 0.25
0.06 0.06 0.07 0.07 0.07 0.07 0.07 0.06 0.06 0.06 0.06 0.06 0.06 0.06 0.06 0.07 0.07 0.08 0.09 0.10 0.11 0.12 0.12 0.13 0.15 0.16 0.15 0.15 0.16 0.17 0.19 0.21 0.23 0.24 0.24 0.24 0.25 0.26 0.26 0.26 0.27 0.30 0.30 0.28
0.04 0.05 0.07 0.08 0.08 0.08 0.08 0.07 0.07 0.07 0.07 0.08 0.08 0.08 0.09 0.08 0.08 0.08 0.09 0.10 0.11 0.13 0.14 0.14 0.16 0.17 0.17 0.19 0.21 0.22 0.22 0.23 0.25 0.26 0.28 0.30 0.32 0.33 0.35 0.36 0.34 0.36 0.36 0.34
0.04 0.04 0.05 0.07 0.08 0.09 0.09 0.09 0.08 0.08 0.08 0.08 0.08 0.08 0.09 0.11 0.12 0.13 0.12 0.12 0.12 0.15 0.17 0.20 0.22 0.23 0.25 0.26 0.25 0.26 0.27 0.28 0.29 0.29 0.32 0.34 0.36 0.37 0.40 0.42 0.44 0.45 0.45 0.44

GEFSNGP_prec_meanprecacc_168.txt.gz
Total_Precipitation_Accumulation
0.16 0.17 0.25 0.45 0.55 0.53 0.49 0.52 0.69 0.73 0.66 0.61 0.55 0.61 0.67 0.70 0.66 0.58 0.54 0.56 0.61 0.64 0.64 0.62 0.59 0.62 0.64 0.70 0.80 0.95 1.09 1.07 0.93 0.74 0.61 0.55 0.50 0.43 0.42 0.43 0.44 0.51 0.58 0.61
0.06 0.08 0.17 0.30 0.41 0.42 0.38 0.37 0.44 0.50 0.50 0.41 0.37 0.43 0.45 0.47 0.43 0.39 0.36 0.33 0.31 0.32 0.34 0.34 0.31 0.28 0.27 0.34 0.49 0.74 1.00 0.98 0.76 0.59 0.47 0.42 0.42 0.40 0.36 0.36 0.42 0.47 0.47 0.50
0.05 0.05 0.12 0.32 0.37 0.34 0.33 0.25 0.26 0.31 0.31 0.27 0.29 0.35 0.35 0.38 0.39 0.30 0.22 0.20 0.20 0.21 0.21 0.20 0.20 0.18 0.19 0.27 0.39 0.56 0.66 0.62 0.52 0.41 0.39 0.42 0.43 0.38 0.36 0.36 0.38 0.41 0.41 0.43
0.07 0.09 0.30 0.58 0.53 0.44 0.40 0.22 0.15 0.15 0.16 0.19 0.29 0.31 0.31 0.29 0.29 0.28 0.18 0.12 0.12 0.12 0.13 0.15 0.16 0.20 0.23 0.27 0.34 0.39 0.41 0.41 0.35 0.32 0.32 0.35 0.37 0.36 0.42 0.47 0.45 0.44 0.47 0.47
0.16 0.21 0.43 0.54 0.49 0.49 0.49 0.33 0.13 0.09 0.10 0.09 0.09 0.11 0.13 0.13 0.11 0.11 0.07 0.04 0.04 0.03 0.03 0.05 0.05 0.07 0.09 0.11 0.13 0.14 0.14 0.14 0.13 0.13 0.15 0.17 0.18 0.24 0.36 0.42 0.44 0.46 0.50 0.51
0.22 0.29 0.43 0.37 0.23 0.25 0.38 0.44 0.12 0.05 0.04 0.02 0.01 0.04 0.06 0.07 0.07 0.03 0.02 0.01 0.01 0.01 0.00 0.00 0.00 0.01 0.01 0.01 0.02 0.03 0.02 0.02 0.03 0.03 0.04 0.05 0.07 0.10 0.18 0.21 0.26 0.35 0.36 0.40
0.24 0.42 0.63 0.45 0.25 0.23 0.39 0.40 0.09 0.03 0.01 0.00 0.00 0.00 0.02 0.05 0.05 0.03 0.01 0.01 0.01 0.01 0.01 0.01 0.00 0.00 0.00 0.01 0.01 0.01 0.01 0.01 0.01 0.01 0.01 0.01 0.03 0.05 0.08 0.10 0.15 0.19 0.23 0.29
0.31 0.60 0.83 0.64 0.42 0.34 0.26 0.11 0.03 0.01 0.00 0.00 0.00 0.00 0.01 0.03 0.03 0.03 0.02 0.01 0.01 0.00 0.00 0.01 0.01 0.00 0.00 0.01 0.01 0.01 0.02 0.01 0.01 0.01 0.01 0.02 0.02 0.04 0.04 0.05 0.08 0.11 0.13 0.17
0.23 0.46 0.52 0.47 0.35 0.25 0.17 0.07 0.01 0.00 0.00 0.00 0.00 0.00 0.00 0.01 0.02 0.01 0.01 0.01 0.01 0.00 0.00 0.01 0.01 0.00 0.01 0.01 0.01 0.01 0.02 0.01 0.01 0.02 0.02 0.02 0.03 0.04 0.04 0.05 0.07 0.09 0.12 0.18
0.05 0.10 0.15 0.18 0.18 0.11 0.08 0.05 0.01 0.00 0.00 0.00 0.00 0.00 0.00 0.01 0.02 0.02 0.01 0.01 0.01 0.01 0.01 0.01 0.00 0.00 0.00 0.01 0.01 0.01 0.01 0.01 0.01 0.02 0.02 0.02 0.04 0.05 0.05 0.05 0.07 0.12 0.17 0.22
0.05 0.03 0.03 0.07 0.08 0.07 0.04 0.02 0.00 0.00 0.00 0.00 0.00 0.00 0.00 0.01 0.03 0.02 0.02 0.01 0.01 0.01 0.01 0.01 0.01 0.01 0.00 0.00 0.01 0.01 0.01 0.01 0.01 0.01 0.02 0.02 0.02 0.02 0.04 0.04 0.06 0.13 0.20 0.25
0.04 0.03 0.02 0.04 0.04 0.04 0.02 0.01 0.00 0.00 0.00 0.00 0.00 0.00 0.00 0.00 0.02 0.03 0.03 0.01 0.01 0.01 0.01 0.01 0.01 0.00 0.00 0.00 0.00 0.01 0.01 0.01 0.01 0.01 0.02 0.02 0.03 0.02 0.03 0.04 0.07 0.09 0.10 0.13
0.02 0.02 0.02 0.02 0.02 0.01 0.01 0.01 0.00 0.00 0.00 0.00 0.00 0.00 0.00 0.00 0.01 0.03 0.03 0.01 0.01 0.01 0.01 0.01 0.01 0.00 0.00 0.00 0.00 0.00 0.00 0.01 0.01 0.01 0.02 0.02 0.04 0.06 0.08 0.06 0.04 0.03 0.03 0.05
0.01 0.02 0.02 0.01 0.01 0.01 0.01 0.01 0.00 0.00 0.00 0.00 0.00 0.00 0.00 0.00 0.01 0.01 0.02 0.01 0.01 0.01 0.01 0.01 0.01 0.01 0.01 0.01 0.00 0.00 0.00 0.01 0.02 0.04 0.06 0.07 0.08 0.11 0.16 0.20 0.17 0.10 0.05 0.04
0.01 0.02 0.01 0.01 0.01 0.01 0.01 0.01 0.01 0.00 0.00 0.00 0.00 0.00 0.00 0.00 0.00 0.01 0.01 0.01 0.01 0.02 0.01 0.01 0.01 0.01 0.01 0.00 0.00 0.01 0.01 0.02 0.04 0.10 0.12 0.10 0.11 0.15 0.17 0.14 0.11 0.11 0.09 0.07
0.02 0.01 0.00 0.01 0.01 0.01 0.00 0.00 0.01 0.01 0.01 0.00 0.00 0.00 0.00 0.00 0.00 0.00 0.01 0.01 0.01 0.02 0.01 0.01 0.01 0.01 0.01 0.01 0.01 0.01 0.01 0.01 0.04 0.09 0.12 0.10 0.09 0.11 0.10 0.09 0.07 0.09 0.10 0.11
0.03 0.02 0.01 0.01 0.01 0.01 0.00 0.00 0.00 0.01 0.01 0.01 0.01 0.00 0.00 0.01 0.01 0.01 0.00 0.01 0.01 0.01 0.01 0.01 0.01 0.01 0.01 0.01 0.01 0.02 0.02 0.02 0.03 0.06 0.08 0.07 0.07 0.08 0.08 0.08 0.09 0.10 0.10 0.12
0.02 0.02 0.02 0.02 0.01 0.01 0.01 0.01 0.01 0.01 0.00 0.01 0.01 0.01 0.01 0.01 0.01 0.01 0.01 0.00 0.01 0.01 0.01 0.01 0.01 0.01 0.01 0.01 0.02 0.02 0.04 0.05 0.07 0.08 0.08 0.07 0.08 0.09 0.12 0.12 0.10 0.12 0.13 0.14
0.02 0.02 0.02 0.02 0.01 0.01 0.01 0.01 0.01 0.01 0.01 0.01 0.01 0.01 0.01 0.02 0.01 0.01 0.01 0.01 0.01 0.01 0.01 0.01 0.01 0.01 0.01 0.02 0.03 0.04 0.04 0.05 0.07 0.09 0.09 0.08 0.09 0.12 0.14 0.13 0.13 0.14 0.16 0.17
0.03 0.03 0.03 0.02 0.01 0.01 0.01 0.01 0.01 0.01 0.01 0.01 0.01 0.01 0.02 0.02 0.02 0.02 0.02 0.02 0.02 0.02 0.01 0.01 0.01 0.01 0.01 0.02 0.04 0.05 0.06 0.07 0.09 0.10 0.11 0.10 0.11 0.13 0.14 0.14 0.15 0.17 0.18 0.19
0.03 0.03 0.02 0.02 0.01 0.01 0.01 0.01 0.01 0.01 0.01 0.01 0.01 0.01 0.02 0.02 0.02 0.03 0.04 0.03 0.03 0.03 0.03 0.03 0.02 0.02 0.02 0.04 0.06 0.07 0.08 0.09 0.10 0.11 0.11 0.10 0.11 0.12 0.14 0.15 0.16 0.18 0.18 0.18
0.05 0.04 0.03 0.02 0.02 0.02 0.02 0.01 0.01 0.01 0.01 0.02 0.02 0.02 0.02 0.02 0.02 0.02 0.03 0.04 0.04 0.04 0.05 0.04 0.04 0.04 0.06 0.09 0.07 0.07 0.08 0.09 0.10 0.11 0.12 0.12 0.12 0.14 0.15 0.16 0.18 0.19 0.19 0.21
0.07 0.06 0.05 0.05 0.04 0.04 0.04 0.03 0.02 0.02 0.02 0.02 0.03 0.03 0.03 0.03 0.03 0.04 0.04 0.04 0.04 0.06 0.06 0.05 0.07 0.09 0.12 0.10 0.08 0.09 0.10 0.11 0.12 0.14 0.15 0.17 0.18 0.18 0.17 0.17 0.18 0.19 0.21 0.25
0.08 0.07 0.06 0.06 0.05 0.05 0.05 0.05 0.04 0.03 0.03 0.03 0.03 0.04 0.04 0.05 0.06 0.06 0.07 0.08 0.08 0.09 0.08 0.09 0.10 0.14 0.16 0.13 0.12 0.13 0.14 0.14 0.15 0.16 0.17 0.19 0.22 0.22 0.21 0.21 0.22 0.23 0.24 0.25
0.06 0.06 0.07 0.07 0.07 0.07 0.07 0.06 0.06 0.06 0.06 0.06 0.06 0.06 0.06 0.07 0.08 0.08 0.09 0.10 0.12 0.12 0.12 0.13 0.15 0.16 0.15 0.15 0.16 0.17 0.19 0.21 0.23 0.24 0.24 0.25 0.26 0.26 0.26 0.26 0.28 0.30 0.30 0.29
0.04 0.05 0.07 0.08 0.09 0.09 0.08 0.08 0.07 0.07 0.07 0.08 0.08 0.08 0.09 0.09 0.08 0.09 0.09 0.10 0.12 0.14 0.14 0.14 0.16 0.17 0.17 0.19 0.21 0.22 0.22 0.23 0.25 0.27 0.28 0.31 0.32 0.34 0.36 0.37 0.35 0.36 0.37 0.35
0.04 0.04 0.05 0.07 0.08 0.09 0.09 0.09 0.09 0.08 0.08 0.08 0.08 0.08 0.09 0.11 0.12 0.13 0.12 0.12 0.12 0.15 0.17 0.20 0.22 0.23 0.25 0.26 0.26 0.26 0.27 0.28 0.29 0.30 0.32 0.35 0.36 0.38 0.40 0.43 0.45 0.46 0.46 0.44

GEFSNGP_prec_meanprecacc_174.txt.gz
Total_Precipitation_Accumulation
0.18 0.18 0.26 0.45 0.56 0.54 0.50 0.53 0.70 0.73 0.66 0.61 0.55 0.61 0.67 0.70 0.66 0.58 0.55 0.56 0.61 0.65 0.64 0.62 0.59 0.62 0.65 0.71 0.81 0.96 1.09 1.07 0.93 0.74 0.62 0.55 0.51 0.44 0.43 0.44 0.45 0.52 0.59 0.62
0.07 0.09 0.17 0.31 0.42 0.43 0.39 0.37 0.45 0.50 0.50 0.41 0.37 0.43 0.45 0.47 0.43 0.39 0.36 0.33 0.32 0.32 0.34 0.34 0.31 0.28 0.28 0.36 0.50 0.75 1.00 0.98 0.76 0.59 0.47 0.43 0.43 0.41 0.38 0.37 0.43 0.49 0.48 0.51
0.06 0.06 0.13 0.33 0.38 0.35 0.33 0.26 0.26 0.31 0.31 0.27 0.29 0.35 0.35 0.38 0.39 0.30 0.22 0.21 0.21 0.21 0.21 0.20 0.20 0.18 0.20 0.28 0.40 0.56 0.67 0.63 0.53 0.42 0.40 0.42 0.44 0.39 0.37 0.37 0.39 0.42 0.42 0.43
0.08 0.10 0.32 0.59 0.53 0.44 0.41 0.23 0.15 0.15 0.16 0.19 0.29 0.31 0.31 0.29 0.29 0.28 0.18 0.12 0.12 0.12 0.13 0.15 0.16 0.20 0.23 0.28 0.35 0.40 0.42 0.42 0.36 0.33 0.33 0.36 0.37 0.37 0.43 0.47 0.45 0.45 0.47 0.48
0.16 0.21 0.43 0.55 0.49 0.50 0.49 0.33 0.13 0.09 0.10 0.09 0.09 0.11 0.13 0.13 0.11 0.11 0.07 0.04 0.04 0.03 0.03 0.05 0.05 0.07 0.09 0.11 0.13 0.14 0.14 0.15 0.14 0.14 0.16 0.17 0.18 0.24 0.36 0.42 0.44 0.47 0.51 0.51
0.22 0.29 0.43 0.37 0.23 0.25 0.38 0.44 0.12 0.05 0.04 0.02 0.01 0.04 0.06 0.07 0.07 0.03 0.02 0.01 0.01 0.01 0.00 0.00 0.00 0.01 0.01 0.02 0.02 0.03 0.02 0.02 0.03 0.03 0.04 0.05 0.08 0.11 0.18 0.21 0.27 0.35 0.37 0.40
0.24 0.42 0.63 0.45 0.25 0.23 0.39 0.40 0.09 0.03 0.01 0.00 0.00 0.00 0.02 0.05 0.05 0.04 0.02 0.01 0.01 0.01 0.01 0.01 0.00 0.00 0.01 0.01 0.01 0.01 0.01 0.01 0.01 0.01 0.01 0.02 0.03 0.05 0.09 0.10 0.15 0.20 0.24 0.30
0.31 0.60 0.83 0.64 0.42 0.34 0.26 0.11 0.03 0.01 0.00 0.00 0.00 0.00 0.01 0.03 0.03 0.03 0.02 0.01 0.01 0.00 0.00 0.01 0.01 0.00 0.00 0.01 0.01 0.01 0.02 0.01 0.01 0.01 0.02 0.02 0.02 0.04 0.05 0.06 0.09 0.12 0.14 0.18
0.23 0.46 0.52 0.47 0.36 0.25 0.17 0.07 0.01 0.00 0.00 0.00 0.00 0.00 0.00 0.01 0.02 0.01 0.01 0.01 0.01 0.00 0.00 0.01 0.01 0.00 0.01 0.01 0.01 0.02 0.02 0.02 0.02 0.02 0.02 0.03 0.04 0.05 0.05 0.05 0.08 0.10 0.13 0.19
0.05 0.10 0.15 0.18 0.18 0.11 0.08 0.05 0.01 0.00 0.00 0.00 0.00 0.00 0.00 0.01 0.02 0.02 0.01 0.01 0.01 0.01 0.01 0.01 0.01 0.00 0.00 0.01 0.01 0.01 0.02 0.01 0.02 0.02 0.02 0.03 0.04 0.05 0.06 0.06 0.08 0.12 0.18 0.23
0.05 0.03 0.03 0.07 0.08 0.07 0.04 0.02 0.00 0.00 0.00 0.00 0.00 0.00 0.00 0.01 0.03 0.02 0.02 0.01 0.01 0.01 0.01 0.01 0.01 0.01 0.00 0.00 0.01 0.01 0.01 0.01 0.01 0.02 0.03 0.03 0.03 0.03 0.05 0.05 0.07 0.15 0.22 0.27
0.04 0.03 0.02 0.04 0.04 0.04 0.02 0.01 0.00 0.00 0.00 0.00 0.00 0.00 0.00 0.00 0.02 0.03 0.03 0.01 0.01 0.01 0.01 0.01 0.01 0.00 0.00 0.00 0.00 0.01 0.01 0.01 0.01 0.02 0.03 0.03 0.04 0.04 0.05 0.06 0.10 0.12 0.12 0.14
0.02 0.02 0.02 0.02 0.02 0.01 0.01 0.01 0.00 0.00 0.00 0.00 0.00 0.00 0.00 0.00 0.01 0.03 0.04 0.02 0.01 0.01 0.02 0.01 0.01 0.00 0.00 0.00 0.00 0.00 0.01 0.01 0.01 0.01 0.02 0.03 0.05 0.07 0.09 0.07 0.05 0.05 0.05 0.06
0.01 0.02 0.02 0.01 0.01 0.01 0.01 0.01 0.00 0.00 0.00 0.00 0.00 0.00 0.00 0.00 0.01 0.01 0.02 0.01 0.02 0.02 0.02 0.02 0.01 0.01 0.01 0.01 0.01 0.00 0.00 0.01 0.02 0.05 0.06 0.08 0.08 0.12 0.17 0.21 0.18 0.11 0.06 0.05
0.01 0.02 0.01 0.01 0.01 0.01 0.01 0.01 0.01 0.00 0.00 0.00 0.00 0.00 0.00 0.00 0.00 0.01 0.01 0.02 0.02 0.02 0.02 0.01 0.01 0.01 0.01 0.00 0.00 0.01 0.01 0.02 0.04 0.10 0.12 0.10 0.11 0.16 0.18 0.14 0.12 0.12 0.10 0.08
0.02 0.01 0.00 0.01 0.01 0.01 0.00 0.00 0.01 0.01 0.01 0.00 0.00 0.00 0.00 0.00 0.00 0.00 0.01 0.01 0.02 0.02 0.02 0.01 0.01 0.01 0.01 0.01 0.01 0.01 0.01 0.02 0.04 0.09 0.12 0.10 0.10 0.11 0.11 0.10 0.08 0.10 0.11 0.12
0.03 0.02 0.01 0.01 0.01 0.01 0.00 0.00 0.00 0.01 0.01 0.01 0.01 0.00 0.00 0.01 0.01 0.01 0.00 0.01 0.02 0.02 0.01 0.01 0.02 0.01 0.01 0.02 0.02 0.02 0.02 0.03 0.04 0.06 0.09 0.08 0.08 0.09 0.09 0.10 0.11 0.12 0.11 0.12
0.02 0.02 0.02 0.02 0.01 0.01 0.01 0.01 0.01 0.01 0.00 0.01 0.01 0.01 0.01 0.01 0.02 0.02 0.02 0.01 0.01 0.02 0.01 0.01 0.02 0.02 0.02 0.02 0.03 0.03 0.04 0.06 0.07 0.09 0.09 0.08 0.08 0.11 0.13 0.13 0.12 0.14 0.14 0.15
0.02 0.02 0.02 0.02 0.01 0.01 0.01 0.01 0.01 0.01 0.01 0.01 0.01 0.01 0.02 0.02 0.02 0.02 0.01 0.01 0.01 0.01 0.01 0.02 0.02 0.02 0.02 0.03 0.04 0.05 0.05 0.07 0.09 0.11 0.11 0.10 0.11 0.13 0.16 0.15 0.14 0.15 0.17 0.18
0.03 0.03 0.03 0.02 0.01 0.01 0.01 0.01 0.01 0.01 0.01 0.01 0.01 0.01 0.02 0.02 0.02 0.02 0.02 0.02 0.02 0.02 0.01 0.02 0.02 0.02 0.03 0.04 0.06 0.07 0.07 0.09 0.11 0.13 0.14 0.13 0.15 0.16 0.17 0.16 0.17 0.19 0.19 0.20
0.03 0.03 0.02 0.02 0.01 0.01 0.01 0.01 0.01 0.01 0.01 0.01 0.01 0.02 0.02 0.02 0.02 0.03 0.04 0.04 0.03 0.03 0.03 0.03 0.02 0.02 0.03 0.05 0.08 0.09 0.11 0.11 0.13 0.14 0.14 0.14 0.15 0.17 0.19 0.19 0.20 0.21 0.21 0.20
0.05 0.04 0.03 0.02 0.02 0.02 0.02 0.01 0.01 0.01 0.01 0.02 0.02 0.03 0.02 0.02 0.02 0.02 0.03 0.04 0.04 0.04 0.05 0.04 0.04 0.04 0.06 0.09 0.08 0.08 0.09 0.11 0.12 0.14 0.15 0.15 0.16 0.18 0.19 0.20 0.21 0.22 0.22 0.23
0.07 0.06 0.05 0.05 0.04 0.04 0.04 0.03 0.02 0.02 0.02 0.02 0.03 0.03 0.03 0.03 0.03 0.04 0.04 0.04 0.05 0.06 0.06 0.05 0.07 0.09 0.13 0.10 0.09 0.09 0.10 0.12 0.13 0.15 0.18 0.21 0.22 0.22 0.22 0.21 0.21 0.22 0.24 0.27
0.08 0.07 0.06 0.06 0.05 0.05 0.05 0.05 0.04 0.03 0.03 0.03 0.03 0.04 0.04 0.05 0.06 0.06 0.07 0.08 0.08 0.09 0.08 0.09 0.10 0.14 0.17 0.13 0.13 0.13 0.14 0.15 0.16 0.17 0.19 0.22 0.26 0.26 0.25 0.24 0.25 0.25 0.26 0.27
0.06 0.06 0.07 0.07 0.07 0.07 0.07 0.07 0.06 0.06 0.06 0.06 0.06 0.06 0.06 0.07 0.08 0.08 0.09 0.10 0.12 0.12 0.12 0.13 0.15 0.17 0.16 0.15 0.17 0.17 0.19 0.22 0.23 0.25 0.25 0.26 0.27 0.29 0.30 0.30 0.31 0.33 0.32 0.30
0.05 0.06 0.07 0.08 0.09 0.09 0.08 0.08 0.07 0.07 0.07 0.08 0.08 0.08 0.09 0.09 0.08 0.09 0.09 0.10 0.12 0.14 0.14 0.15 0.16 0.17 0.17 0.20 0.22 0.22 0.23 0.24 0.25 0.27 0.29 0.31 0.33 0.35 0.38 0.39 0.38 0.39 0.39 0.37
0.04 0.05 0.06 0.07 0.08 0.09 0.09 0.09 0.09 0.08 0.08 0.08 0.09 0.08 0.09 0.11 0.12 0.13 0.12 0.12 0.12 0.15 0.17 0.20 0.22 0.24 0.25 0.26 0.26 0.27 0.28 0.29 0.30 0.31 0.33 0.35 0.37 0.38 0.41 0.43 0.46 0.48 0.48 0.47

GEFSNGP_prec_meanprecacc_180.txt.gz
Total_Precipitation_Accumulation
0.19 0.20 0.28 0.47 0.57 0.54 0.51 0.56 0.77 0.77 0.68 0.61 0.56 0.62 0.67 0.70 0.67 0.58 0.55 0.56 0.61 0.65 0.65 0.62 0.59 0.63 0.66 0.72 0.83 0.97 1.10 1.08 0.94 0.75 0.62 0.56 0.51 0.45 0.43 0.44 0.45 0.52 0.59 0.62
0.09 0.10 0.18 0.32 0.43 0.44 0.40 0.38 0.46 0.52 0.51 0.41 0.38 0.43 0.45 0.47 0.43 0.39 0.36 0.33 0.32 0.32 0.34 0.35 0.32 0.29 0.28 0.36 0.52 0.76 1.02 0.99 0.77 0.59 0.48 0.43 0.43 0.42 0.38 0.38 0.44 0.49 0.48 0.51
0.09 0.07 0.14 0.34 0.39 0.36 0.35 0.27 0.27 0.32 0.32 0.28 0.29 0.36 0.36 0.38 0.40 0.30 0.22 0.21 0.21 0.21 0.21 0.21 0.20 0.18 0.20 0.28 0.40 0.57 0.67 0.64 0.54 0.44 0.41 0.44 0.46 0.41 0.39 0.39 0.41 0.43 0.43 0.44
0.10 0.12 0.35 0.61 0.54 0.46 0.42 0.23 0.15 0.16 0.17 0.19 0.29 0.31 0.31 0.30 0.29 0.28 0.18 0.12 0.12 0.12 0.13 0.15 0.16 0.20 0.24 0.28 0.35 0.40 0.42 0.43 0.38 0.35 0.37 0.39 0.39 0.39 0.45 0.50 0.48 0.47 0.48 0.48
0.18 0.24 0.46 0.57 0.51 0.50 0.49 0.34 0.14 0.10 0.10 0.09 0.09 0.11 0.13 0.13 0.11 0.11 0.07 0.04 0.04 0.03 0.03 0.05 0.05 0.07 0.09 0.11 0.13 0.15 0.14 0.15 0.14 0.14 0.16 0.18 0.19 0.25 0.37 0.43 0.46 0.48 0.51 0.52
0.23 0.31 0.46 0.38 0.24 0.26 0.38 0.44 0.12 0.06 0.04 0.02 0.01 0.04 0.06 0.07 0.07 0.04 0.02 0.01 0.01 0.01 0.01 0.00 0.00 0.01 0.01 0.02 0.02 0.03 0.02 0.02 0.03 0.03 0.04 0.05 0.08 0.11 0.18 0.21 0.27 0.36 0.38 0.41
0.25 0.43 0.64 0.46 0.26 0.23 0.40 0.40 0.09 0.03 0.02 0.00 0.00 0.01 0.02 0.05 0.05 0.04 0.02 0.01 0.01 0.01 0.01 0.01 0.01 0.00 0.01 0.01 0.01 0.01 0.01 0.01 0.01 0.01 0.01 0.02 0.03 0.05 0.09 0.11 0.16 0.20 0.24 0.31
0.32 0.60 0.83 0.64 0.42 0.35 0.26 0.11 0.03 0.01 0.00 0.00 0.00 0.00 0.01 0.03 0.03 0.03 0.02 0.01 0.01 0.00 0.01 0.01 0.01 0.01 0.01 0.01 0.01 0.01 0.02 0.01 0.01 0.01 0.02 0.02 0.03 0.04 0.06 0.07 0.09 0.12 0.14 0.19
0.23 0.46 0.53 0.47 0.36 0.25 0.17 0.07 0.01 0.00 0.00 0.00 0.00 0.00 0.00 0.01 0.02 0.01 0.01 0.01 0.01 0.00 0.00 0.01 0.01 0.00 0.01 0.01 0.01 0.02 0.02 0.02 0.02 0.02 0.02 0.03 0.04 0.05 0.05 0.06 0.08 0.11 0.14 0.21
0.05 0.11 0.16 0.19 0.18 0.11 0.09 0.05 0.01 0.00 0.00 0.00 0.00 0.00 0.00 0.01 0.02 0.02 0.01 0.01 0.01 0.01 0.01 0.01 0.01 0.01 0.00 0.01 0.01 0.01 0.02 0.02 0.02 0.02 0.03 0.04 0.05 0.06 0.07 0.07 0.09 0.13 0.19 0.25
0.05 0.03 0.04 0.07 0.08 0.07 0.04 0.02 0.00 0.00 0.00 0.00 0.00 0.00 0.00 0.01 0.03 0.02 0.02 0.01 0.01 0.01 0.01 0.01 0.01 0.01 0.01 0.01 0.01 0.01 0.01 0.01 0.01 0.02 0.03 0.03 0.04 0.04 0.05 0.06 0.08 0.16 0.23 0.28
0.05 0.03 0.02 0.04 0.04 0.04 0.02 0.01 0.00 0.00 0.00 0.00 0.00 0.00 0.00 0.00 0.02 0.03 0.03 0.01 0.01 0.01 0.01 0.01 0.01 0.00 0.00 0.00 0.00 0.01 0.01 0.01 0.01 0.02 0.03 0.03 0.04 0.04 0.05 0.07 0.11 0.13 0.14 0.16
0.02 0.02 0.02 0.02 0.02 0.01 0.01 0.01 0.00 0.00 0.00 0.00 0.00 0.00 0.00 0.00 0.01 0.03 0.04 0.02 0.01 0.01 0.02 0.01 0.01 0.00 0.00 0.00 0.00 0.00 0.01 0.01 0.01 0.01 0.02 0.03 0.05 0.07 0.09 0.08 0.06 0.05 0.05 0.07
0.01 0.02 0.02 0.01 0.01 0.01 0.01 0.01 0.00 0.00 0.00 0.00 0.00 0.00 0.00 0.00 0.01 0.02 0.02 0.02 0.02 0.02 0.02 0.02 0.01 0.01 0.01 0.01 0.01 0.00 0.00 0.01 0.02 0.05 0.07 0.08 0.09 0.12 0.17 0.21 0.19 0.11 0.07 0.05
0.01 0.02 0.01 0.01 0.01 0.01 0.01 0.01 0.01 0.00 0.00 0.00 0.00 0.00 0.00 0.00 0.00 0.01 0.01 0.02 0.02 0.02 0.02 0.01 0.01 0.01 0.01 0.01 0.00 0.01 0.01 0.02 0.04 0.10 0.12 0.10 0.12 0.17 0.19 0.15 0.13 0.12 0.11 0.09
0.02 0.01 0.00 0.01 0.01 0.01 0.00 0.00 0.01 0.01 0.01 0.00 0.00 0.00 0.00 0.00 0.00 0.00 0.01 0.02 0.02 0.02 0.02 0.02 0.02 0.02 0.02 0.01 0.01 0.01 0.01 0.02 0.04 0.09 0.12 0.11 0.10 0.12 0.11 0.10 0.08 0.10 0.11 0.13
0.03 0.02 0.01 0.01 0.01 0.01 0.00 0.00 0.00 0.01 0.01 0.01 0.01 0.01 0.01 0.01 0.01 0.01 0.01 0.01 0.02 0.02 0.02 0.02 0.02 0.02 0.02 0.02 0.02 0.02 0.02 0.03 0.04 0.07 0.09 0.08 0.08 0.09 0.09 0.10 0.11 0.12 0.12 0.13
0.02 0.02 0.02 0.02 0.01 0.01 0.01 0.01 0.01 0.01 0.00 0.01 0.01 0.01 0.01 0.01 0.02 0.02 0.02 0.02 0.03 0.03 0.03 0.02 0.03 0.03 0.03 0.04 0.04 0.04 0.05 0.07 0.08 0.09 0.09 0.08 0.09 0.11 0.14 0.13 0.12 0.14 0.15 0.15
0.02 0.02 0.02 0.02 0.01 0.01 0.01 0.01 0.01 0.01 0.01 0.01 0.01 0.01 0.02 0.02 0.02 0.02 0.02 0.02 0.02 0.02 0.02 0.02 0.03 0.02 0.03 0.04 0.05 0.05 0.06 0.07 0.09 0.11 0.11 0.10 0.11 0.14 0.16 0.16 0.15 0.16 0.17 0.19
0.03 0.03 0.03 0.02 0.01 0.01 0.01 0.01 0.01 0.01 0.01 0.01 0.01 0.02 0.02 0.03 0.03 0.03 0.03 0.03 0.03 0.02 0.02 0.02 0.03 0.04 0.04 0.05 0.07 0.07 0.08 0.10 0.11 0.14 0.15 0.14 0.16 0.17 0.17 0.17 0.18 0.19 0.20 0.21
0.03 0.03 0.02 0.02 0.01 0.01 0.01 0.01 0.01 0.01 0.01 0.01 0.01 0.02 0.02 0.03 0.03 0.04 0.04 0.04 0.03 0.03 0.03 0.03 0.02 0.03 0.04 0.07 0.09 0.11 0.13 0.13 0.14 0.15 0.15 0.15 0.16 0.18 0.20 0.20 0.21 0.22 0.23 0.22
0.05 0.04 0.03 0.02 0.02 0.02 0.02 0.01 0.01 0.01 0.01 0.02 0.02 0.03 0.03 0.02 0.02 0.03 0.03 0.04 0.04 0.04 0.05 0.04 0.04 0.04 0.06 0.09 0.08 0.09 0.11 0.14 0.16 0.18 0.19 0.18 0.19 0.20 0.22 0.24 0.25 0.26 0.27 0.28
0.07 0.06 0.05 0.05 0.04 0.04 0.04 0.03 0.02 0.02 0.02 0.02 0.03 0.03 0.03 0.03 0.04 0.04 0.04 0.04 0.05 0.06 0.06 0.05 0.07 0.09 0.13 0.11 0.09 0.10 0.11 0.12 0.14 0.17 0.21 0.25 0.26 0.26 0.26 0.25 0.26 0.28 0.30 0.33
0.08 0.07 0.06 0.06 0.05 0.05 0.06 0.06 0.04 0.03 0.03 0.04 0.04 0.04 0.05 0.05 0.06 0.06 0.07 0.08 0.08 0.09 0.08 0.09 0.10 0.14 0.17 0.13 0.13 0.13 0.15 0.16 0.16 0.17 0.20 0.23 0.27 0.28 0.28 0.28 0.30 0.30 0.30 0.32
0.06 0.07 0.07 0.08 0.07 0.07 0.07 0.07 0.07 0.06 0.06 0.07 0.07 0.07 0.06 0.07 0.08 0.08 0.09 0.10 0.12 0.12 0.12 0.13 0.15 0.17 0.16 0.15 0.17 0.18 0.20 0.22 0.24 0.25 0.26 0.27 0.29 0.31 0.32 0.33 0.36 0.38 0.37 0.35
0.05 0.06 0.08 0.09 0.09 0.09 0.09 0.08 0.08 0.08 0.08 0.08 0.08 0.09 0.09 0.09 0.08 0.09 0.09 0.10 0.12 0.14 0.14 0.15 0.16 0.17 0.18 0.20 0.22 0.23 0.23 0.24 0.26 0.28 0.29 0.32 0.33 0.36 0.39 0.41 0.41 0.44 0.45 0.42
0.05 0.05 0.07 0.08 0.09 0.09 0.09 0.09 0.09 0.08 0.08 0.08 0.09 0.08 0.09 0.11 0.12 0.13 0.12 0.12 0.12 0.15 0.18 0.20 0.22 0.24 0.25 0.27 0.27 0.27 0.28 0.30 0.30 0.31 0.33 0.36 0.38 0.39 0.42 0.45 0.47 0.51 0.52 0.51

GEFSNGP_prec_meanprecacc_186.txt.gz
Total_Precipitation_Accumulation
0.20 0.21 0.29 0.49 0.59 0.56 0.52 0.58 0.81 0.82 0.72 0.65 0.60 0.65 0.68 0.72 0.68 0.60 0.57 0.58 0.63 0.66 0.65 0.63 0.60 0.63 0.66 0.73 0.84 0.99 1.12 1.10 0.95 0.77 0.64 0.58 0.54 0.47 0.46 0.47 0.48 0.55 0.62 0.65
0.09 0.10 0.19 0.33 0.44 0.45 0.41 0.41 0.49 0.56 0.54 0.44 0.41 0.46 0.47 0.48 0.44 0.40 0.37 0.35 0.34 0.34 0.35 0.35 0.32 0.29 0.29 0.37 0.52 0.77 1.03 1.01 0.79 0.61 0.49 0.45 0.45 0.45 0.41 0.40 0.45 0.50 0.49 0.53
0.10 0.08 0.15 0.36 0.40 0.37 0.37 0.29 0.29 0.35 0.35 0.30 0.32 0.37 0.38 0.40 0.41 0.31 0.24 0.23 0.23 0.22 0.21 0.21 0.20 0.19 0.20 0.28 0.40 0.57 0.68 0.65 0.56 0.45 0.43 0.46 0.48 0.43 0.42 0.41 0.42 0.44 0.43 0.45
0.11 0.13 0.37 0.63 0.55 0.46 0.42 0.24 0.16 0.17 0.19 0.21 0.30 0.32 0.33 0.31 0.31 0.30 0.20 0.14 0.13 0.13 0.13 0.15 0.16 0.20 0.24 0.28 0.35 0.40 0.43 0.43 0.39 0.37 0.38 0.41 0.42 0.41 0.47 0.51 0.49 0.48 0.49 0.49
0.18 0.25 0.47 0.58 0.52 0.51 0.50 0.34 0.15 0.12 0.12 0.11 0.11 0.13 0.14 0.15 0.13 0.12 0.08 0.05 0.05 0.04 0.04 0.05 0.06 0.07 0.09 0.11 0.13 0.15 0.14 0.15 0.15 0.15 0.17 0.19 0.21 0.27 0.38 0.44 0.47 0.50 0.54 0.54
0.23 0.32 0.46 0.39 0.24 0.26 0.39 0.45 0.13 0.07 0.06 0.04 0.02 0.05 0.07 0.08 0.09 0.05 0.02 0.02 0.02 0.01 0.02 0.02 0.01 0.01 0.02 0.02 0.03 0.03 0.03 0.03 0.04 0.04 0.05 0.06 0.09 0.13 0.19 0.22 0.27 0.37 0.39 0.42
0.25 0.44 0.64 0.47 0.26 0.24 0.41 0.41 0.09 0.04 0.02 0.01 0.01 0.01 0.03 0.06 0.07 0.05 0.03 0.03 0.02 0.02 0.02 0.02 0.02 0.01 0.02 0.03 0.03 0.02 0.03 0.02 0.02 0.02 0.02 0.03 0.04 0.06 0.10 0.12 0.17 0.21 0.26 0.31
0.32 0.61 0.83 0.65 0.42 0.36 0.27 0.11 0.04 0.01 0.00 0.00 0.00 0.01 0.01 0.03 0.04 0.03 0.03 0.02 0.02 0.01 0.01 0.02 0.02 0.02 0.02 0.02 0.02 0.02 0.03 0.02 0.02 0.02 0.03 0.03 0.03 0.05 0.07 0.08 0.10 0.13 0.15 0.20
0.24 0.47 0.53 0.47 0.36 0.25 0.18 0.07 0.01 0.00 0.00 0.00 0.01 0.00 0.01 0.02 0.02 0.02 0.02 0.01 0.01 0.01 0.01 0.01 0.01 0.01 0.01 0.02 0.02 0.02 0.02 0.02 0.02 0.03 0.03 0.04 0.05 0.06 0.06 0.07 0.09 0.11 0.14 0.22
0.05 0.11 0.16 0.19 0.19 0.12 0.09 0.05 0.01 0.00 0.00 0.00 0.00 0.00 0.01 0.01 0.03 0.02 0.01 0.01 0.01 0.01 0.01 0.01 0.01 0.01 0.01 0.02 0.02 0.02 0.02 0.02 0.02 0.03 0.03 0.04 0.06 0.07 0.08 0.08 0.09 0.14 0.19 0.25
0.06 0.04 0.04 0.08 0.10 0.09 0.05 0.02 0.01 0.00 0.00 0.00 0.00 0.00 0.00 0.01 0.03 0.02 0.02 0.01 0.01 0.01 0.01 0.01 0.01 0.01 0.01 0.01 0.01 0.01 0.01 0.01 0.01 0.02 0.03 0.04 0.04 0.04 0.06 0.06 0.09 0.16 0.23 0.29
0.06 0.03 0.03 0.05 0.05 0.04 0.03 0.01 0.00 0.00 0.00 0.00 0.00 0.00 0.00 0.01 0.02 0.03 0.03 0.01 0.01 0.01 0.01 0.01 0.01 0.01 0.00 0.00 0.01 0.01 0.01 0.01 0.01 0.02 0.03 0.04 0.04 0.04 0.05 0.07 0.11 0.14 0.14 0.17
0.03 0.02 0.02 0.02 0.02 0.02 0.01 0.01 0.00 0.00 0.00 0.00 0.00 0.00 0.00 0.00 0.01 0.03 0.04 0.02 0.01 0.01 0.02 0.01 0.01 0.00 0.00 0.00 0.00 0.00 0.01 0.01 0.02 0.02 0.02 0.03 0.05 0.08 0.10 0.08 0.06 0.06 0.06 0.08
0.01 0.02 0.02 0.01 0.01 0.01 0.01 0.01 0.00 0.00 0.00 0.00 0.00 0.00 0.00 0.00 0.01 0.02 0.02 0.02 0.02 0.02 0.02 0.02 0.01 0.01 0.01 0.01 0.01 0.00 0.00 0.01 0.02 0.05 0.07 0.08 0.09 0.13 0.18 0.22 0.20 0.12 0.07 0.06
0.01 0.02 0.01 0.01 0.01 0.01 0.01 0.01 0.01 0.00 0.00 0.00 0.00 0.00 0.00 0.00 0.00 0.01 0.02 0.02 0.02 0.02 0.02 0.02 0.01 0.02 0.01 0.01 0.00 0.01 0.01 0.02 0.04 0.10 0.12 0.10 0.12 0.17 0.19 0.15 0.13 0.12 0.11 0.09
0.02 0.01 0.01 0.01 0.01 0.01 0.00 0.01 0.01 0.01 0.01 0.00 0.00 0.00 0.01 0.00 0.00 0.00 0.01 0.02 0.02 0.02 0.02 0.02 0.02 0.02 0.02 0.01 0.01 0.01 0.01 0.02 0.04 0.09 0.12 0.11 0.10 0.12 0.12 0.10 0.09 0.10 0.11 0.13
0.03 0.02 0.01 0.01 0.01 0.01 0.00 0.00 0.00 0.01 0.01 0.01 0.01 0.01 0.01 0.01 0.01 0.01 0.01 0.01 0.02 0.02 0.02 0.02 0.03 0.03 0.02 0.02 0.02 0.02 0.02 0.03 0.04 0.07 0.09 0.08 0.08 0.09 0.10 0.11 0.11 0.12 0.12 0.13
0.02 0.02 0.02 0.02 0.01 0.01 0.01 0.01 0.01 0.01 0.00 0.01 0.01 0.01 0.02 0.02 0.02 0.03 0.02 0.02 0.03 0.04 0.03 0.04 0.04 0.04 0.04 0.04 0.04 0.04 0.05 0.07 0.08 0.10 0.10 0.08 0.09 0.12 0.15 0.15 0.14 0.15 0.15 0.16
0.02 0.02 0.02 0.02 0.01 0.01 0.01 0.01 0.01 0.01 0.01 0.01 0.01 0.02 0.02 0.03 0.03 0.02 0.03 0.03 0.03 0.03 0.03 0.03 0.04 0.03 0.03 0.04 0.05 0.06 0.06 0.08 0.09 0.12 0.12 0.11 0.12 0.15 0.17 0.17 0.16 0.17 0.19 0.19
0.03 0.03 0.03 0.02 0.01 0.01 0.01 0.01 0.01 0.01 0.01 0.01 0.02 0.02 0.03 0.03 0.03 0.04 0.04 0.04 0.04 0.04 0.02 0.03 0.04 0.04 0.04 0.05 0.07 0.08 0.09 0.11 0.13 0.15 0.15 0.15 0.16 0.18 0.18 0.18 0.19 0.21 0.21 0.22
0.04 0.03 0.02 0.02 0.01 0.01 0.01 0.01 0.01 0.01 0.01 0.01 0.02 0.03 0.03 0.03 0.04 0.05 0.06 0.06 0.05 0.04 0.04 0.04 0.03 0.03 0.04 0.07 0.09 0.11 0.13 0.13 0.14 0.16 0.16 0.16 0.17 0.19 0.21 0.21 0.21 0.23 0.23 0.23
0.06 0.04 0.03 0.03 0.02 0.02 0.02 0.01 0.01 0.02 0.02 0.02 0.03 0.03 0.03 0.03 0.03 0.04 0.05 0.05 0.05 0.06 0.06 0.05 0.05 0.05 0.07 0.09 0.08 0.09 0.11 0.14 0.16 0.18 0.19 0.19 0.20 0.22 0.23 0.25 0.27 0.28 0.28 0.30
0.08 0.07 0.06 0.05 0.04 0.04 0.04 0.03 0.02 0.02 0.02 0.03 0.03 0.04 0.05 0.05 0.05 0.05 0.04 0.04 0.05 0.07 0.06 0.06 0.07 0.10 0.13 0.11 0.09 0.10 0.11 0.12 0.14 0.17 0.21 0.25 0.27 0.28 0.27 0.27 0.28 0.29 0.31 0.35
0.08 0.07 0.06 0.06 0.06 0.05 0.06 0.06 0.04 0.04 0.04 0.04 0.04 0.05 0.06 0.07 0.07 0.07 0.08 0.09 0.09 0.10 0.09 0.09 0.10 0.14 0.17 0.13 0.13 0.13 0.15 0.16 0.16 0.17 0.20 0.24 0.27 0.28 0.28 0.29 0.30 0.31 0.31 0.33
0.06 0.07 0.07 0.08 0.08 0.08 0.07 0.07 0.07 0.07 0.07 0.08 0.08 0.08 0.08 0.09 0.10 0.10 0.10 0.11 0.12 0.13 0.12 0.13 0.15 0.17 0.16 0.16 0.17 0.18 0.20 0.22 0.24 0.25 0.26 0.27 0.29 0.31 0.32 0.34 0.36 0.39 0.38 0.36
0.05 0.06 0.08 0.09 0.09 0.09 0.09 0.08 0.08 0.08 0.09 0.10 0.11 0.10 0.10 0.10 0.10 0.09 0.09 0.10 0.12 0.14 0.14 0.15 0.16 0.17 0.18 0.20 0.22 0.23 0.23 0.24 0.26 0.28 0.30 0.32 0.34 0.36 0.39 0.41 0.42 0.46 0.46 0.43
0.05 0.06 0.07 0.09 0.10 0.10 0.10 0.10 0.10 0.09 0.10 0.11 0.10 0.10 0.10 0.12 0.13 0.13 0.12 0.12 0.13 0.15 0.18 0.21 0.23 0.24 0.26 0.27 0.27 0.27 0.29 0.30 0.30 0.31 0.33 0.36 0.38 0.40 0.42 0.46 0.49 0.52 0.53 0.52

GEFSNGP_prec_meanprecacc_192.txt.gz
Total_Precipitation_Accumulation
0.20 0.22 0.31 0.50 0.60 0.58 0.54 0.59 0.83 0.84 0.74 0.67 0.61 0.65 0.69 0.72 0.69 0.61 0.58 0.59 0.64 0.67 0.67 0.64 0.60 0.63 0.66 0.73 0.84 0.99 1.12 1.10 0.95 0.77 0.64 0.58 0.54 0.47 0.46 0.47 0.49 0.56 0.63 0.67
0.09 0.11 0.19 0.34 0.44 0.46 0.43 0.42 0.51 0.58 0.56 0.45 0.42 0.47 0.48 0.49 0.44 0.41 0.39 0.36 0.34 0.35 0.36 0.36 0.32 0.29 0.29 0.37 0.53 0.78 1.03 1.01 0.79 0.62 0.50 0.45 0.46 0.45 0.42 0.41 0.46 0.51 0.51 0.55
0.10 0.08 0.15 0.37 0.40 0.38 0.37 0.30 0.31 0.36 0.36 0.32 0.34 0.39 0.39 0.41 0.42 0.32 0.26 0.25 0.25 0.24 0.22 0.21 0.21 0.19 0.21 0.29 0.41 0.58 0.69 0.65 0.56 0.46 0.43 0.47 0.49 0.44 0.43 0.43 0.44 0.46 0.45 0.47
0.11 0.14 0.37 0.63 0.56 0.47 0.43 0.24 0.17 0.18 0.20 0.22 0.33 0.35 0.34 0.33 0.32 0.31 0.22 0.16 0.16 0.16 0.15 0.17 0.18 0.21 0.24 0.28 0.35 0.40 0.43 0.44 0.39 0.37 0.39 0.41 0.43 0.43 0.49 0.54 0.52 0.50 0.51 0.51
0.19 0.26 0.48 0.59 0.52 0.51 0.50 0.34 0.15 0.12 0.12 0.12 0.12 0.14 0.16 0.16 0.14 0.14 0.10 0.08 0.07 0.07 0.06 0.08 0.07 0.08 0.09 0.12 0.14 0.15 0.15 0.16 0.16 0.16 0.18 0.21 0.22 0.28 0.40 0.46 0.49 0.51 0.55 0.56
0.24 0.32 0.47 0.39 0.24 0.26 0.39 0.46 0.13 0.07 0.07 0.05 0.03 0.07 0.09 0.10 0.10 0.07 0.05 0.05 0.04 0.03 0.04 0.04 0.04 0.03 0.02 0.03 0.03 0.03 0.03 0.03 0.05 0.06 0.07 0.08 0.11 0.15 0.21 0.23 0.28 0.38 0.41 0.43
0.25 0.44 0.64 0.47 0.26 0.24 0.42 0.42 0.09 0.04 0.03 0.02 0.01 0.02 0.04 0.07 0.08 0.06 0.05 0.06 0.04 0.04 0.04 0.04 0.04 0.03 0.03 0.03 0.03 0.03 0.03 0.03 0.04 0.04 0.04 0.05 0.06 0.08 0.12 0.13 0.18 0.22 0.26 0.32
0.33 0.61 0.83 0.65 0.43 0.36 0.28 0.12 0.04 0.01 0.01 0.01 0.01 0.01 0.02 0.04 0.06 0.05 0.05 0.05 0.04 0.03 0.03 0.04 0.03 0.03 0.03 0.03 0.02 0.03 0.03 0.03 0.03 0.03 0.04 0.04 0.05 0.07 0.08 0.10 0.12 0.14 0.16 0.21
0.25 0.47 0.53 0.48 0.36 0.26 0.18 0.08 0.01 0.00 0.00 0.01 0.01 0.01 0.01 0.03 0.03 0.03 0.04 0.03 0.03 0.02 0.02 0.03 0.03 0.03 0.03 0.03 0.03 0.02 0.03 0.02 0.03 0.03 0.04 0.05 0.06 0.08 0.08 0.08 0.10 0.12 0.15 0.22
0.06 0.11 0.16 0.20 0.19 0.12 0.10 0.06 0.01 0.00 0.00 0.00 0.00 0.01 0.01 0.02 0.04 0.04 0.03 0.03 0.03 0.03 0.03 0.03 0.03 0.04 0.04 0.03 0.03 0.02 0.02 0.02 0.03 0.03 0.04 0.05 0.06 0.08 0.09 0.09 0.10 0.14 0.20 0.26
0.06 0.04 0.05 0.09 0.10 0.09 0.06 0.03 0.01 0.00 0.00 0.00 0.00 0.00 0.01 0.02 0.04 0.05 0.04 0.04 0.04 0.05 0.04 0.04 0.04 0.05 0.06 0.06 0.04 0.03 0.02 0.02 0.02 0.03 0.03 0.04 0.04 0.05 0.06 0.07 0.09 0.16 0.23 0.29
0.06 0.04 0.04 0.05 0.05 0.04 0.03 0.01 0.01 0.00 0.00 0.00 0.00 0.00 0.00 0.01 0.02 0.03 0.04 0.03 0.03 0.03 0.03 0.02 0.02 0.02 0.03 0.03 0.04 0.04 0.03 0.03 0.02 0.03 0.04 0.04 0.05 0.05 0.06 0.07 0.11 0.14 0.15 0.17
0.03 0.03 0.03 0.03 0.03 0.02 0.01 0.01 0.00 0.00 0.00 0.00 0.00 0.00 0.00 0.01 0.02 0.03 0.04 0.02 0.02 0.02 0.02 0.01 0.01 0.01 0.01 0.01 0.01 0.02 0.02 0.03 0.03 0.03 0.04 0.05 0.06 0.08 0.10 0.09 0.07 0.06 0.07 0.09
0.01 0.02 0.02 0.02 0.02 0.02 0.01 0.01 0.00 0.00 0.00 0.00 0.00 0.00 0.00 0.01 0.01 0.02 0.03 0.02 0.02 0.02 0.02 0.02 0.01 0.01 0.01 0.01 0.01 0.00 0.01 0.01 0.02 0.05 0.07 0.08 0.09 0.13 0.18 0.22 0.20 0.12 0.07 0.06
0.01 0.02 0.01 0.01 0.01 0.01 0.01 0.01 0.01 0.00 0.00 0.00 0.00 0.00 0.00 0.00 0.00 0.01 0.02 0.02 0.02 0.03 0.02 0.02 0.02 0.02 0.02 0.01 0.01 0.01 0.01 0.02 0.05 0.10 0.12 0.11 0.12 0.17 0.19 0.16 0.13 0.12 0.11 0.09
0.02 0.01 0.01 0.01 0.01 0.01 0.01 0.01 0.01 0.01 0.01 0.00 0.00 0.00 0.01 0.00 0.00 0.00 0.01 0.02 0.02 0.02 0.02 0.02 0.03 0.03 0.02 0.01 0.01 0.01 0.02 0.02 0.05 0.10 0.13 0.11 0.10 0.12 0.12 0.11 0.09 0.10 0.12 0.13
0.03 0.02 0.01 0.01 0.01 0.01 0.01 0.01 0.01 0.01 0.01 0.01 0.01 0.01 0.01 0.01 0.01 0.01 0.01 0.01 0.02 0.03 0.02 0.02 0.03 0.03 0.03 0.02 0.03 0.03 0.03 0.04 0.05 0.08 0.09 0.08 0.08 0.09 0.10 0.11 0.12 0.13 0.13 0.14
0.03 0.02 0.02 0.02 0.01 0.01 0.01 0.01 0.01 0.01 0.01 0.01 0.01 0.01 0.02 0.02 0.02 0.03 0.02 0.02 0.03 0.04 0.04 0.04 0.04 0.04 0.04 0.04 0.05 0.05 0.06 0.08 0.09 0.11 0.10 0.08 0.09 0.12 0.15 0.15 0.14 0.16 0.17 0.17
0.02 0.02 0.02 0.02 0.01 0.01 0.01 0.01 0.01 0.01 0.01 0.01 0.01 0.02 0.02 0.03 0.03 0.02 0.03 0.03 0.04 0.03 0.03 0.04 0.04 0.04 0.04 0.04 0.06 0.07 0.08 0.09 0.11 0.12 0.12 0.11 0.12 0.15 0.17 0.17 0.17 0.18 0.19 0.21
0.03 0.03 0.03 0.02 0.01 0.01 0.01 0.01 0.01 0.01 0.01 0.01 0.02 0.02 0.03 0.03 0.04 0.04 0.04 0.05 0.05 0.04 0.03 0.03 0.04 0.05 0.05 0.06 0.08 0.09 0.10 0.12 0.15 0.16 0.16 0.15 0.16 0.18 0.18 0.18 0.20 0.21 0.22 0.23
0.04 0.03 0.02 0.02 0.01 0.01 0.01 0.01 0.01 0.02 0.02 0.02 0.02 0.03 0.03 0.04 0.04 0.05 0.06 0.06 0.05 0.05 0.04 0.05 0.04 0.04 0.05 0.07 0.10 0.12 0.14 0.15 0.16 0.17 0.17 0.16 0.17 0.19 0.21 0.21 0.22 0.24 0.24 0.24
0.06 0.05 0.04 0.03 0.02 0.02 0.02 0.01 0.01 0.02 0.02 0.02 0.03 0.03 0.03 0.03 0.03 0.04 0.05 0.06 0.06 0.07 0.07 0.07 0.07 0.07 0.09 0.11 0.09 0.10 0.12 0.15 0.17 0.19 0.19 0.19 0.20 0.23 0.24 0.26 0.27 0.29 0.29 0.31
0.08 0.07 0.06 0.05 0.04 0.04 0.04 0.03 0.03 0.02 0.03 0.03 0.04 0.04 0.05 0.05 0.05 0.05 0.05 0.06 0.07 0.09 0.09 0.08 0.10 0.13 0.16 0.13 0.10 0.11 0.12 0.13 0.15 0.18 0.22 0.26 0.28 0.29 0.28 0.27 0.28 0.30 0.32 0.36
0.09 0.08 0.07 0.06 0.06 0.06 0.06 0.06 0.05 0.04 0.04 0.04 0.05 0.05 0.06 0.07 0.07 0.08 0.09 0.10 0.11 0.12 0.11 0.11 0.13 0.17 0.19 0.15 0.14 0.14 0.15 0.16 0.17 0.18 0.20 0.24 0.28 0.29 0.29 0.30 0.30 0.31 0.32 0.33
0.07 0.07 0.08 0.08 0.08 0.08 0.07 0.07 0.07 0.07 0.07 0.08 0.08 0.08 0.08 0.09 0.11 0.11 0.11 0.12 0.14 0.14 0.14 0.15 0.17 0.19 0.18 0.17 0.18 0.19 0.20 0.23 0.24 0.26 0.26 0.27 0.29 0.31 0.32 0.34 0.37 0.39 0.38 0.36
0.06 0.07 0.08 0.10 0.09 0.09 0.09 0.09 0.08 0.08 0.09 0.10 0.11 0.11 0.11 0.11 0.11 0.10 0.10 0.12 0.14 0.15 0.16 0.17 0.17 0.18 0.19 0.22 0.24 0.24 0.24 0.25 0.26 0.28 0.30 0.32 0.34 0.36 0.39 0.42 0.42 0.46 0.46 0.43
0.06 0.06 0.08 0.09 0.10 0.10 0.10 0.10 0.10 0.09 0.10 0.11 0.11 0.10 0.11 0.13 0.14 0.14 0.14 0.14 0.15 0.18 0.20 0.21 0.23 0.25 0.26 0.28 0.27 0.28 0.29 0.30 0.31 0.31 0.33 0.36 0.38 0.40 0.42 0.46 0.49 0.52 0.53 0.52

GEFSNGP_prec_meanprecacc_198.txt.gz
Total_Precipitation_Accumulation
0.21 0.23 0.31 0.51 0.61 0.58 0.55 0.61 0.84 0.85 0.78 0.72 0.67 0.69 0.70 0.74 0.70 0.62 0.58 0.59 0.64 0.67 0.67 0.64 0.60 0.64 0.67 0.73 0.84 0.99 1.12 1.10 0.96 0.77 0.64 0.58 0.54 0.47 0.46 0.47 0.49 0.56 0.63 0.67
0.10 0.11 0.20 0.34 0.44 0.46 0.43 0.43 0.52 0.59 0.57 0.48 0.46 0.50 0.50 0.51 0.46 0.42 0.39 0.37 0.35 0.35 0.36 0.36 0.32 0.29 0.29 0.37 0.53 0.78 1.03 1.01 0.79 0.62 0.50 0.45 0.46 0.46 0.42 0.41 0.46 0.52 0.51 0.55
0.11 0.09 0.15 0.37 0.40 0.38 0.37 0.30 0.31 0.36 0.36 0.32 0.35 0.42 0.42 0.44 0.44 0.33 0.26 0.25 0.25 0.24 0.23 0.22 0.21 0.19 0.21 0.29 0.41 0.58 0.69 0.66 0.56 0.46 0.44 0.47 0.49 0.44 0.43 0.43 0.44 0.46 0.46 0.47
0.12 0.14 0.38 0.63 0.56 0.47 0.43 0.24 0.17 0.18 0.20 0.23 0.33 0.36 0.37 0.35 0.34 0.32 0.23 0.16 0.17 0.16 0.16 0.17 0.18 0.21 0.25 0.29 0.35 0.40 0.43 0.44 0.39 0.37 0.39 0.42 0.43 0.43 0.49 0.55 0.52 0.51 0.52 0.51
0.20 0.26 0.48 0.59 0.52 0.51 0.50 0.35 0.15 0.12 0.13 0.13 0.12 0.14 0.17 0.18 0.15 0.15 0.11 0.08 0.08 0.07 0.07 0.08 0.08 0.09 0.10 0.12 0.14 0.15 0.15 0.16 0.16 0.17 0.19 0.21 0.23 0.29 0.40 0.47 0.50 0.52 0.56 0.56
0.25 0.33 0.47 0.39 0.24 0.26 0.39 0.46 0.13 0.07 0.07 0.05 0.04 0.07 0.09 0.10 0.11 0.08 0.06 0.06 0.05 0.04 0.04 0.05 0.04 0.03 0.03 0.03 0.03 0.03 0.03 0.04 0.06 0.07 0.07 0.09 0.11 0.16 0.22 0.23 0.29 0.38 0.41 0.44
0.27 0.45 0.65 0.47 0.26 0.24 0.42 0.42 0.09 0.04 0.03 0.02 0.04 0.03 0.04 0.07 0.09 0.07 0.06 0.06 0.06 0.05 0.05 0.05 0.05 0.04 0.03 0.03 0.03 0.03 0.03 0.03 0.04 0.05 0.05 0.05 0.07 0.09 0.13 0.14 0.19 0.22 0.27 0.33
0.33 0.62 0.84 0.65 0.43 0.36 0.28 0.12 0.04 0.01 0.01 0.01 0.01 0.02 0.03 0.05 0.06 0.06 0.06 0.06 0.05 0.04 0.05 0.05 0.05 0.05 0.04 0.04 0.03 0.03 0.04 0.03 0.03 0.04 0.05 0.05 0.05 0.07 0.09 0.11 0.13 0.15 0.17 0.22
0.26 0.48 0.53 0.48 0.36 0.26 0.18 0.08 0.01 0.00 0.00 0.01 0.01 0.01 0.02 0.04 0.04 0.04 0.05 0.05 0.05 0.05 0.04 0.05 0.05 0.04 0.04 0.04 0.04 0.04 0.03 0.03 0.03 0.04 0.05 0.05 0.07 0.08 0.08 0.09 0.11 0.13 0.16 0.23
0.07 0.12 0.17 0.20 0.19 0.12 0.10 0.06 0.01 0.00 0.01 0.01 0.01 0.01 0.02 0.04 0.05 0.05 0.04 0.05 0.05 0.06 0.05 0.06 0.07 0.06 0.07 0.05 0.04 0.03 0.03 0.02 0.03 0.04 0.04 0.05 0.07 0.08 0.09 0.10 0.11 0.15 0.21 0.27
0.08 0.05 0.05 0.09 0.10 0.09 0.06 0.03 0.01 0.01 0.01 0.01 0.01 0.02 0.02 0.03 0.06 0.07 0.06 0.06 0.08 0.09 0.07 0.06 0.08 0.08 0.10 0.10 0.07 0.04 0.03 0.02 0.02 0.03 0.04 0.04 0.05 0.05 0.07 0.07 0.10 0.17 0.24 0.29
0.07 0.04 0.04 0.05 0.06 0.05 0.03 0.01 0.01 0.00 0.00 0.00 0.01 0.01 0.02 0.02 0.04 0.06 0.06 0.05 0.05 0.07 0.07 0.05 0.05 0.07 0.08 0.09 0.10 0.09 0.06 0.03 0.03 0.03 0.04 0.05 0.05 0.05 0.06 0.08 0.12 0.15 0.15 0.17
0.03 0.03 0.03 0.03 0.03 0.02 0.01 0.01 0.00 0.00 0.00 0.00 0.00 0.01 0.01 0.02 0.02 0.04 0.05 0.03 0.03 0.03 0.04 0.04 0.04 0.03 0.03 0.04 0.05 0.06 0.07 0.06 0.04 0.04 0.04 0.06 0.07 0.09 0.11 0.09 0.07 0.07 0.07 0.09
0.02 0.02 0.03 0.02 0.02 0.02 0.01 0.01 0.01 0.00 0.00 0.00 0.00 0.00 0.01 0.01 0.01 0.02 0.03 0.02 0.02 0.03 0.03 0.03 0.03 0.02 0.01 0.01 0.01 0.02 0.02 0.04 0.04 0.06 0.08 0.09 0.10 0.14 0.19 0.22 0.20 0.13 0.08 0.06
0.02 0.02 0.02 0.01 0.02 0.02 0.01 0.01 0.01 0.01 0.01 0.00 0.00 0.00 0.00 0.00 0.01 0.01 0.02 0.02 0.02 0.03 0.02 0.02 0.02 0.02 0.02 0.01 0.01 0.01 0.01 0.02 0.05 0.11 0.13 0.12 0.14 0.19 0.21 0.17 0.14 0.13 0.11 0.09
0.03 0.02 0.02 0.01 0.01 0.01 0.01 0.01 0.01 0.01 0.01 0.01 0.01 0.01 0.01 0.01 0.01 0.01 0.01 0.02 0.03 0.03 0.03 0.02 0.03 0.03 0.02 0.01 0.01 0.02 0.02 0.03 0.05 0.10 0.13 0.12 0.12 0.14 0.14 0.12 0.10 0.11 0.12 0.13
0.04 0.03 0.03 0.02 0.02 0.01 0.01 0.01 0.01 0.01 0.01 0.01 0.01 0.01 0.01 0.01 0.01 0.01 0.01 0.02 0.02 0.03 0.03 0.03 0.03 0.03 0.03 0.02 0.03 0.03 0.04 0.05 0.06 0.09 0.11 0.09 0.10 0.11 0.12 0.13 0.13 0.14 0.14 0.14
0.03 0.03 0.02 0.02 0.02 0.01 0.01 0.01 0.01 0.01 0.01 0.01 0.01 0.02 0.02 0.03 0.03 0.03 0.03 0.03 0.03 0.04 0.04 0.05 0.04 0.04 0.04 0.04 0.05 0.05 0.06 0.08 0.10 0.12 0.13 0.11 0.12 0.14 0.16 0.16 0.16 0.17 0.18 0.18
0.03 0.02 0.02 0.02 0.02 0.02 0.02 0.02 0.02 0.02 0.01 0.01 0.01 0.02 0.03 0.04 0.03 0.02 0.03 0.04 0.04 0.03 0.03 0.04 0.04 0.04 0.04 0.05 0.06 0.07 0.08 0.10 0.12 0.14 0.15 0.14 0.15 0.18 0.20 0.19 0.18 0.19 0.20 0.21
0.04 0.04 0.03 0.02 0.02 0.01 0.02 0.02 0.02 0.02 0.02 0.02 0.02 0.02 0.03 0.04 0.04 0.04 0.05 0.05 0.05 0.04 0.03 0.04 0.05 0.05 0.05 0.06 0.08 0.09 0.11 0.14 0.17 0.19 0.19 0.18 0.19 0.20 0.21 0.20 0.21 0.22 0.22 0.23
0.04 0.03 0.03 0.02 0.02 0.01 0.02 0.02 0.02 0.02 0.02 0.02 0.03 0.03 0.04 0.04 0.04 0.05 0.06 0.06 0.05 0.05 0.04 0.05 0.04 0.04 0.05 0.08 0.11 0.13 0.15 0.17 0.19 0.20 0.21 0.20 0.20 0.21 0.23 0.22 0.23 0.25 0.25 0.24
0.06 0.05 0.04 0.03 0.02 0.02 0.02 0.02 0.02 0.02 0.02 0.03 0.03 0.04 0.04 0.04 0.04 0.04 0.05 0.06 0.06 0.07 0.07 0.07 0.07 0.07 0.09 0.12 0.11 0.12 0.15 0.17 0.19 0.22 0.24 0.23 0.24 0.25 0.26 0.27 0.28 0.30 0.31 0.32
0.09 0.07 0.06 0.05 0.05 0.04 0.04 0.03 0.03 0.03 0.03 0.03 0.04 0.04 0.05 0.05 0.05 0.06 0.06 0.06 0.07 0.09 0.10 0.09 0.12 0.15 0.18 0.14 0.11 0.12 0.14 0.16 0.17 0.20 0.24 0.28 0.30 0.31 0.31 0.29 0.30 0.31 0.33 0.37
0.10 0.09 0.07 0.07 0.06 0.06 0.06 0.06 0.05 0.04 0.04 0.04 0.05 0.05 0.07 0.07 0.07 0.08 0.09 0.11 0.12 0.13 0.12 0.12 0.15 0.19 0.22 0.17 0.16 0.16 0.18 0.19 0.19 0.19 0.22 0.25 0.29 0.30 0.31 0.31 0.32 0.32 0.32 0.33
0.09 0.10 0.10 0.10 0.09 0.08 0.08 0.08 0.08 0.07 0.07 0.08 0.09 0.09 0.09 0.09 0.11 0.11 0.11 0.13 0.14 0.15 0.15 0.16 0.18 0.20 0.20 0.20 0.21 0.21 0.23 0.25 0.26 0.27 0.27 0.28 0.30 0.32 0.33 0.34 0.37 0.39 0.38 0.36
0.08 0.09 0.10 0.11 0.11 0.11 0.10 0.09 0.09 0.09 0.09 0.11 0.11 0.11 0.11 0.11 0.11 0.11 0.11 0.13 0.14 0.16 0.17 0.18 0.19 0.20 0.21 0.25 0.27 0.27 0.27 0.28 0.28 0.29 0.30 0.33 0.34 0.36 0.39 0.42 0.42 0.46 0.46 0.43
0.07 0.08 0.09 0.10 0.11 0.11 0.11 0.11 0.10 0.10 0.10 0.11 0.11 0.10 0.11 0.13 0.14 0.14 0.14 0.14 0.16 0.19 0.21 0.23 0.24 0.26 0.28 0.30 0.31 0.32 0.34 0.34 0.33 0.33 0.34 0.37 0.38 0.40 0.43 0.46 0.49 0.52 0.53 0.52